Location: Altmatt
(47.1333°N, 8.7000°E)
Time: 05:30:41
(UTC+00:00)

USA 267 - Visible Passes

Search period start: 31 October 2020 00:00
Search period end: 10 November 2020 00:00
Orbit: 1101 x 1106 km, 123.0° (Epoch: 22 September)

Date Brightness Start Highest point End Pass type
(mag) Time Alt. Az. Time Alt. Az. Time Alt. Az.
01 Nov 5.8 16:35:37 10° S 16:40:34 23° SW 16:45:31 10° WNW visible
03 Nov 5.8 16:53:13 10° S 16:58:08 22° SW 17:03:05 10° WNW visible
05 Nov 5.7 17:10:50 10° S 17:15:43 22° SW 17:20:39 10° WNW visible
06 Nov 4.7 16:26:23 10° SSE 16:32:32 42° SW 16:38:42 10° WNW visible
07 Nov 5.6 17:28:26 10° S 17:33:18 22° SW 17:38:12 10° WNW visible
08 Nov 4.6 16:43:59 10° SSE 16:50:07 42° SW 16:56:17 10° WNW visible
09 Nov 5.5 17:46:02 10° S 17:50:53 22° SW 17:55:46 10° WNW visible
